Regional Weather Roundup
Issued by NWS

Home | Current Version | Previous Version | Graphics & Text | Print | Product List | Glossary Off
Versions: 1 2 3 4 5 6 7 8 9 10 11 12 13 14 15 16 17 18 19 20 21 22 23 24 25 26 27 28 29 30 31 32 33 34 35 36 37 38 39 40 41 42 43 44 45 46 47 48 49 50

000
ASUS43 KTOP 242308
RWRKS

WEATHER ROUNDUP FOR KANSAS
NATIONAL WEATHER SERVICE GOODLAND KS
600 PM CDT FRI MAR 24 2017

NOTE:  "FAIR" INDICATES FEW OR NO CLOUDS BELOW 12,000 FEET WITH NO
SIGNIFICANT WEATHER AND/OR OBSTRUCTIONS TO VISIBILITY.

KSZ001>006-013>018-027>032-041>047-250000-
NORTHWEST KANSAS

CITY           SKY/WX    TMP DP  RH WIND       PRES   REMARKS
GOODLAND       LGT SNOW  37  36  96 N22G33    30.04R FOG     WCI  26
HAYS             N/A     47  41  80 N30G36    29.89R
HILL CITY      CLOUDY    44  40  85 N23G30    29.97R
RUSSELL        CLOUDY    50  42  74 N28G35    29.84R
$$

KSZ061>065-074>080-084>089-250000-
SOUTHWEST KANSAS

CITY           SKY/WX    TMP DP  RH WIND       PRES   REMARKS
DODGE CITY     LGT RAIN  46  44  93 N22G33    29.87R FOG
ELKHART          N/A     45  31  58 N31         N/A
GARDEN CITY    CLOUDY    45  40  82 N26G32    29.93R
GREAT BEND     PTSUNNY   58  45  62 N30G36    29.79R
LIBERAL        CLOUDY    46  37  71 N30G44    29.89R
PRATT          CLOUDY    64  33  31 N10G20    29.74R
$$

KSZ066>073-081>083-090>101-250000-
SOUTHEAST KANSAS

CITY           SKY/WX    TMP DP  RH WIND       PRES   REMARKS
CHANUTE        CLOUDY    65  56  72 SE15G23   29.79F
COFFEYVILLE    MOSUNNY   68  57  68 SE23      29.74F
HUTCHINSON     CLOUDY    68  43  40 E10G23    29.72R THUNDER
MEDICINE LODGE   N/A     71  26  18 S3        29.71R
NEWTON         RAIN      63  48  59 S17G24    29.75R
PARSONS        PTSUNNY   66  57  72 SE10G18   29.76F
WICHITA INTL   TSTM      61  32  33 N7        29.73R
WICHITA JABRA  CLOUDY    66  50  56 N5        29.73R
WICHITA MCCONL MOSUNNY   67  51  56 CALM      29.72R THUNDER
WINFIELD       CLOUDY    73  51  46 E8        29.70S
$$

KSZ007>012-019>026-033>040-048>060-102>105-250000-
NORTHEAST KANSAS

CITY           SKY/WX    TMP DP  RH WIND       PRES   REMARKS
CONCORDIA      CLOUDY    48  44  86 N18G26    29.87R
EMPORIA        CLOUDY    67  56  67 SE17G26   29.73F
LAWRENCE       CLOUDY    65  59  81 E17       29.80F
MANHATTAN      CLOUDY    65  56  72 NE14      29.78R
MARYSVILLE     CLOUDY    50  45  81 N18G25    29.86R
OLATHE IND     CLOUDY    63  57  81 SE14      29.83S
OLATHE EXE     CLOUDY    61  59  93 S10       29.84S
SALINA         MOSUNNY   66  50  56 N25G33    29.76R
TOPEKA BILLARD CLOUDY    69  59  70 E12       29.78F
TOPEKA FORBES  PTSUNNY   69  57  65 SE15G23   29.78F
$$




USA.gov is the U.S. government's official web portal to all federal, state and local government web resources and services.